Weather History for Springfield, MO

Change the Weather History Date:

Monday, October 20, 2014

  Actual Average Record
Temperature  
Mean Temperature 62 °F 57 °F  
Max Temperature 74 °F 68 °F 88 °F (1979)
Min Temperature 50 °F 45 °F 24 °F (1960)
Degree Days  
Heating Degree Days 3 9  
Month to date heating degree days 121 134  
Since 1 July heating degree days 152 189  
Cooling Degree Days 0 1  
Month to date cooling degree days 29 26  
Year to date cooling degree days 1454 1385  
Growing Degree Days 12 (Base 50)    
Moisture  
Dew Point 52 °F    
Average Humidity 71    
Maximum Humidity 93    
Minimum Humidity 49    
Precipitation  
Precipitation 0.00 in 0.12 in 1.73 in (1983)
Month to date precipitation 7.22 2.30  
Year to date precipitation 34.19 37.02  
Snow  
Snow 0.00 in - - ()
Month to date snowfall 0.0  
Since 1 July snowfall 0.0  
Since 1 September snowfall 0.0  
Snow Depth 0.00 in    
Sea Level Pressure  
Sea Level Pressure 30.03 in    
Wind  
Wind Speed 4 mph (WSW)    
Max Wind Speed 14 mph    
Max Gust Speed 18 mph    
Visibility 10 miles    
Events      
T = Trace of Precipitation, MM = Missing Value Source: NWS Daily Summary

Daily Weather History Graph

Daily Weather History Graph

Search for Another Location

Airport:

Trip Planner

Search our weather history database for the weather conditions in past years. The results will help you decide how hot, cold, wet, or windy it might be!

Date:

Astronomy

Oct. 20, 2014 Rise Set
Actual Time 7:26 AM CDT 6:29 PM CDT
Civil Twilight 6:59 AM CDT 6:56 PM CDT
Nautical Twilight 6:29 AM CDT 7:26 PM CDT
Astronomical Twilight 5:59 AM CDT 7:56 PM CDT
Moon 4:19 AM CDT (10/20) 4:49 PM CDT (10/20)
Length of Visible Light 11h 56m
Length of Day
11h 03m
Waning Crescent, 10% of the Moon is Illuminated
Oct 20
Waning Crescent
Oct 23
New
Oct 30
First Quarter
Nov 6
Full
Nov 14
Last Quarter

Hourly Weather History & Observations

Time (CDT) Temp. Dew Point Humidity Pressure Visibility Wind Dir Wind Speed Gust Speed Precip Events Conditions
12:52 AM 54.0 °F 48.9 °F 83% 30.04 in 10.0 mi South 3.5 mph - N/A   Mostly Cloudy
1:52 AM 54.0 °F 50.0 °F 86% 30.03 in 10.0 mi South 4.6 mph - N/A   Overcast
2:52 AM 54.0 °F 50.0 °F 86% 30.03 in 10.0 mi South 6.9 mph - N/A   Overcast
3:52 AM 54.0 °F 50.0 °F 86% 30.02 in 10.0 mi South 5.8 mph - N/A   Overcast
4:52 AM 54.0 °F 51.1 °F 90% 30.01 in 10.0 mi South 4.6 mph - N/A   Overcast
5:52 AM 55.9 °F 51.1 °F 84% 30.02 in 10.0 mi SW 3.5 mph - N/A   Overcast
6:52 AM 55.9 °F 51.1 °F 84% 30.04 in 10.0 mi Calm Calm - N/A   Overcast
7:52 AM 57.0 °F 53.1 °F 87% 30.04 in 10.0 mi SSW 4.6 mph - N/A   Overcast
8:52 AM 59.0 °F 52.0 °F 78% 30.06 in 10.0 mi WSW 5.8 mph - N/A   Mostly Cloudy
9:52 AM 62.6 °F 51.8 °F 68% 30.07 in 10.0 mi West 10.4 mph - N/A   Overcast
10:52 AM 64.0 °F 53.1 °F 67% 30.06 in 10.0 mi West 10.4 mph - N/A   Overcast
11:52 AM 66.2 °F 55.4 °F 68% 30.07 in 10.0 mi WNW 8.1 mph - N/A   Overcast
12:52 PM 69.1 °F 55.0 °F 61% 30.04 in 10.0 mi North - - N/A   Clear
1:52 PM 72.0 °F 55.9 °F 57% 30.01 in 10.0 mi Variable 4.6 mph - N/A   Clear
2:52 PM 73.0 °F 55.0 °F 53% 30.00 in 10.0 mi Calm Calm - N/A   Clear
3:52 PM 73.9 °F 54.0 °F 50% 30.00 in 10.0 mi NW 4.6 mph - N/A   Clear
4:52 PM 73.9 °F 55.0 °F 52% 29.99 in 10.0 mi NNW 5.8 mph - N/A   Clear
5:52 PM 72.0 °F 54.0 °F 53% 30.00 in 10.0 mi NW 5.8 mph - N/A   Clear
6:52 PM 63.0 °F 54.0 °F 72% 30.01 in 10.0 mi Calm Calm - N/A   Clear
7:52 PM 60.1 °F 54.0 °F 80% 30.02 in 10.0 mi Calm Calm - N/A   Clear
8:52 PM 57.9 °F 53.1 °F 84% 30.03 in 10.0 mi Calm Calm - N/A   Clear
9:52 PM 55.0 °F 51.1 °F 86% 30.05 in 10.0 mi Calm Calm - N/A   Clear
10:52 PM 54.0 °F 51.1 °F 90% 30.06 in 9.0 mi Calm Calm - N/A   Clear
11:52 PM 50.0 °F 48.9 °F 96% 30.06 in 3.0 mi Calm Calm - N/A   Clear